Карточка аэропорта UNWW

Внимание!
Информация на этой странице в стадии наполнения.
Если вы не увидели какой-то информации, или заметили неточность - пожалуйста сообщите нам!
Спасибо!
Команда RU-STAFF
Название аэропортаСпиченково
Название аэропорта (англ.)Spichenkovo
Превышение1023 ft. (311.8 m.)
Координаты53°48.714', 86°52.704'
Высота перехода800m
Эшелон переходаFL050
Коды ответчика5270-5277
Зона ОрВДНовосибирск РПИ (UNNT)
Данные METARUNWW 171400Z 14002MPS 9999 SCT040CB 11/08 Q1012 R19/220257 NOSIG RMK QFE732
Проноз погоды (TAF)UNWW 171400Z 1715/1815 15003G08MPS 8000 BKN040CB TEMPO 1715/1721 21006G12MPS -SHRA SCT016CB TEMPO 1721/1802 0300 FG SCT003 BKN020CB TEMPO 1803/1815 24006G15MPS -TSRA SCT016CB
NOTAMshow/hide NOTAM
AWOS   TABLE

Информация о ВПП

ВПП Длина ВПП (м.) Покрытие Курс ВПП Частота ILS
012679Цементобетон14 
192679Цементобетон194111.1

Диспетчерские позиции

Позывной Наименование органа УВД Частота
UNWW_APPНовокузнецк-Подход118.6
UNWW_TWRНовокузнецк-Старт121.2



Спутниковое изображение